Regional Weather Roundup
Issued by NWS Little Rock, AR

Home | Current Version | Previous Version | Graphics & Text | Print | Product List | Glossary On
Versions: 1 2 3 4 5 6 7 8 9 10 11 12 13 14 15 16 17 18 19 20 21 22 23 24 25 26 27 28 29 30 31
000
ASUS44 KLZK 280305
RWRLZK

WEATHER ROUNDUP FOR ARKANSAS
NATIONAL WEATHER SERVICE LITTLE ROCK AR
1000 PM CDT THU APR 27 2017

NOTE: "FAIR" INDICATES FEW OR NO CLOUDS BELOW 12,000 FEET WITH NO
SIGNIFICANT WEATHER AND/OR OBSTRUCTIONS TO VISIBILITY.

ARZ001-003-010-029-280400-
NORTHWEST ARKANSAS

CITY           SKY/WX    TMP DP  RH WIND       PRES   REMARKS
FAYETTEVILLE   CLOUDY    56  53  90 CALM      29.75R
FORT SMITH     CLOUDY    63  49  60 E5        29.73R
HARRISON       CLOUDY    58  46  64 SE12      29.76R
BENTONVILLE    CLOUDY    59  45  58 CALM      29.76R
ROGERS         CLOUDY    59  45  59 S3        29.77R
SILOAM SPGS    CLOUDY    57  45  62 CALM      29.74R
HIGHFILL       CLOUDY    59  48  67 S6        29.74R
$$

ARZ004-005-016-280400-
NORTH CENTRAL ARKANSAS

CITY           SKY/WX    TMP DP  RH WIND       PRES   REMARKS
BATESVILLE     CLEAR     57  50  77 E5        29.80S
FLIPPIN        MOCLDY   N/A N/A N/A E5        29.75R
MTN HOME       PTCLDY    59  47  64 SE7       29.78R
$$

ARZ040-041-280400-
WEST CENTRAL ARKANSAS

CITY           SKY/WX    TMP DP  RH WIND       PRES   REMARKS
MENA           CLOUDY    63  57  82 NE6       29.73R
MOUNT IDA      PTCLDY    60  52  74 NE5       29.72R
$$

ARZ009-017-025-026-028-280400-
NORTHEAST ARKANSAS

CITY           SKY/WX    TMP DP  RH WIND       PRES   REMARKS
CORNING        FAIR      61  55  82 E6        29.84R
JONESBORO      CLEAR     61  53  75 E6        29.81R
NEWPORT        CLEAR     59  55  87 E5        29.81R
WALNUT RIDGE   CLOUDY    61  52  72 E6        29.82R
BLYTHEVILLE    CLOUDY    59  55  87 E6        29.84R
$$

ARZ022-023-033-042-044-280400-
CENTRAL ARKANSAS

CITY           SKY/WX    TMP DP  RH WIND       PRES   REMARKS
LITTLE ROCK    PTCLDY    58  54  86 E5        29.77R
N LITTLE ROCK    N/A     59  53  80 E5        29.78R
JACKSONVILLE   CLEAR     56  54  92 CALM      29.77R
CONWAY           N/A     59  54  82 E8        29.75R
SEARCY         CLEAR     56  53  90 E3        29.80R
HOT SPRINGS    CLEAR     62  53  72 E7        29.76R
RUSSELLVILLE   CLEAR     59  52  77 VRB3      29.75R
CLINTON          N/A     54  52  94 CALM      29.79R
$$

ARZ036-280400-
EAST ARKANSAS

CITY           SKY/WX    TMP DP  RH WIND       PRES   REMARKS
WEST MEMPHIS   CLEAR     61  53  75 SE7       29.80S
$$

ARZ050-053-066-070-073-280400-
SOUTHWEST ARKANSAS

CITY           SKY/WX    TMP DP  RH WIND       PRES   REMARKS
ARKADELPHIA    FAIR      60  58  92 CALM      29.77R
CAMDEN         CLEAR     59  52  77 SE3       29.76S
TEXARKANA      CLOUDY    61  54  77 E5        29.71R
EL DORADO      CLEAR     61  54  77 E5        29.76R
DE QUEEN       CLEAR     57  56  96 CALM      29.70R
$$

ARZ056-057-069-280400-
SOUTHEAST ARKANSAS

CITY           SKY/WX    TMP DP  RH WIND       PRES   REMARKS
PINE BLUFF     CLEAR     60  56  86 SE8       29.78R
STUTTGART      CLEAR     63  48  59 SE7       29.79R
MONTICELLO     CLEAR     60  54  80 E6        29.79R

$$






USA.gov is the U.S. government's official web portal to all federal, state and local government web resources and services.